Regional Weather Roundup
Issued by NWS

Home | Current Version | Previous Version | Graphics & Text | Print | Product List | Glossary On
Versions: 1 2 3 4 5 6 7 8 9 10 11 12 13 14 15 16 17 18 19 20 21 22 23 24 25 26 27 28 29 30 31 32 33 34 35 36 37 38 39 40 41 42 43 44 45 46 47 48 49 50
000
ASUS43 KIND 142259
RWRIN

WEATHER ROUNDUP FOR INDIANA
NATIONAL WEATHER SERVICE INDIANAPOLIS IN
600 PM EST THU DEC 14 2017

NOTE: "FAIR" INDICATES FEW OR NO CLOUDS BELOW 12,000 FEET WITH NO
SIGNIFICANT WEATHER AND/OR OBSTRUCTIONS TO VISIBILITY.

* - STATION DOES NOT REPORT WEATHER SUCH AS PRECIPITATION OR FOG.

+ - STATION NOT QUALITY CONTROLLED BY THE NATIONAL WEATHER SERVICE.
    USE DATA WITH CAUTION...ESPECIALLY DEWPOINT AND RELATIVE
    HUMIDITY OBSERVATIONS.

INZ001>003-010>013-019-020-150000-
NORTHWEST INDIANA

CITY           SKY/WX    TMP DP  RH WIND       PRES   REMARKS
GARY /AIRPORT/ PTCLDY    25  14  63 W3        30.07S
KNOX *+        MOCLDY    23  16  74 SE7       30.07S WCI  15
LA PORTE +     CLOUDY    22  14  72 CALM      30.06S
MICHIGAN CITY+ CLOUDY    23  19  86 S5        30.07R WCI  17
MONTICELLO +   PTCLDY    25  13  60 CALM      30.07R
RENSSELAER +   CLOUDY    27  16  63 CALM      30.07S

$$

LMZ046-743>745-150000-
SOUTHERN LAKE MICHIGAN

STATION/POSITION TIME  TEMP    WIND        PRES    WAVE
                       AIR SEA DIR/SP/G            HT
                 (UTC) (F)     (DEG/KT/KT) (MB)    (FT)
BURNS HARBOR     2240   27     280/  4/  7 1018.6R

$$

INZ004-005-014>016-021>024-150000-
NORTH CENTRAL INDIANA

CITY           SKY/WX    TMP DP  RH WIND       PRES   REMARKS
ELKHART        CLOUDY    21  10  63 CALM      30.06R
GOSHEN         CLOUDY    20  10  65 CALM      30.06R
PERU/GRISSOM   PTCLDY    25  14  62 CALM      30.06R
SOUTH BEND     FLURRIES  22  14  71 S6        30.06R WCI  14
WARSAW +       CLOUDY    23  10  58 CALM      30.07R

$$

INZ006>009-017-018-025>027-150000-
NORTHEAST INDIANA

CITY           SKY/WX    TMP DP  RH WIND       PRES   REMARKS
FORT WAYNE     MOCLDY    20  11  68 S5        30.08R WCI  13
KENDALLVILLE + CLOUDY    19   8  62 CALM      30.05S

$$

INZ028-029-035-036-043>045-051>053-150000-
WEST CENTRAL INDIANA

CITY           SKY/WX    TMP DP  RH WIND       PRES   REMARKS
CRAWFORDSVL +  CLOUDY    26  12  55 CALM      30.06S
GREENCASTLE +  CLOUDY    28  10  47 CALM      30.07R
LAFAYETTE      MOCLDY    28  14  55 CALM      30.07R
TERRE HAUTE    CLOUDY    30  15  53 N3        30.08R

$$

INZ030>032-037>040-046>048-054>057-064-065-150000-
CENTRAL INDIANA

CITY           SKY/WX    TMP DP  RH WIND       PRES   REMARKS
COLUMBUS       CLEAR     27  12  54 CALM      30.09R
INDIANAPOLIS   MOCLDY    27  10  49 S6        30.07R WCI  20
-EAGLE CREEK   PTCLDY    29  12  49 NE3       30.06R
KOKOMO +       CLOUDY    25  15  66 CALM      30.08R
MT COMFORT *+  CLOUDY    25  16  68 S3        30.07R
SHELBYVILLE    PTCLDY    26  13  57 SE3       30.07R

$$

INZ033-034-041-042-049-050-058-059-150000-
EAST CENTRAL INDIANA

CITY           SKY/WX    TMP DP  RH WIND       PRES   REMARKS
MUNCIE         CLOUDY    26  12  55 CALM      30.07R
RICHMOND +     PTCLDY    21  16  79 CALM      30.06R

$$

INZ060-061-067>069-081>083-085>088-150000-
SOUTHWEST INDIANA

CITY           SKY/WX    TMP DP  RH WIND       PRES   REMARKS
EVANSVILLE     CLOUDY    33  21  61 CALM      30.10R

$$

INZ062-063-066-070>080-084-089>092-150000-
SOUTH CENTRAL AND SOUTHEAST INDIANA

CITY           SKY/WX    TMP DP  RH WIND       PRES   REMARKS
BLOOMINGTON    CLOUDY    30  13  49 CALM      30.06R
MADISON *+     MOCLDY    30  18  59 CALM      30.07S
SEYMOUR +      PTCLDY    28  14  54 N6        30.08R WCI  22

$$





USA.gov is the U.S. government's official web portal to all federal, state and local government web resources and services.